User: anonymous   Login
Location: Drayton Valley
(53.2170°N, 114.9830°W)
Time: 19:34:51
(UTC-07:00)
Language:

Cosmos 1302 Rocket - Orbit

View from above orbital plane
View from above orbital plane
View from above satellite
View from above satellite

Ground track
Ground track

The orbit data is extracted from the following two-line orbital elements,

1 12792U 81084B   17053.07425360  .00000091  00000-0  39254-4 0  9992
2 12792  74.0279 247.2993 0014118 204.6062 155.4419 14.37459498858513
Epoch (UTC): 22 February 2017 01:46:55
Eccentricity: 0.0014118
inclination: 74.0279°
perigee height: 757 km
apogee height: 777 km
right ascension of ascending node: 247.2993°
argument of perigee: 204.6062°
revolutions per day: 14.37459498
mean anomaly at epoch: 155.4419°
orbit number at epoch: 85851

The dashed part of the orbit path shows where the satellite is in the earth's shadow,  

DLR